GFSSE_500_spd_084.txt.gz
Wind_Speed
35 35 33 37 31 31 23 21 24 22 27 25 34 27 21 17 16 14 7 5 6 7 10 11 12 14 15 15 12 10 11 10 10 10 9 10 10 8 8 8 9 8 8
26 33 31 33 28 26 27 25 28 29 22 34 27 25 21 20 17 12 8 5 5 7 11 12 14 15 13 12 12 11 12 13 12 11 11 11 11 9 9 9 8 9 9
24 27 34 28 29 30 31 32 34 32 24 26 23 26 26 19 14 11 9 7 7 9 11 14 14 15 16 15 14 13 13 12 14 13 12 12 12 11 10 11 10 10 11
31 32 33 28 30 32 35 34 33 33 26 27 30 30 28 24 16 11 8 6 8 11 12 15 15 15 17 18 19 18 16 15 16 15 15 13 12 11 11 13 12 10 8
36 39 36 40 37 37 40 36 30 30 32 30 31 31 30 26 18 13 8 7 7 9 14 14 14 15 17 19 21 21 20 19 18 17 15 17 14 14 14 14 12 10 9
36 35 36 41 42 44 44 40 35 28 29 31 32 34 28 22 18 13 11 9 9 13 14 16 15 16 22 23 22 23 23 21 21 21 21 21 17 15 14 13 12 10 10
27 36 36 29 35 39 41 36 38 33 29 30 33 30 26 25 19 17 15 10 10 11 16 17 20 19 20 23 23 23 24 25 25 24 24 14 13 13 13 13 12 11 9
19 20 40 36 37 42 43 41 39 35 31 27 35 33 28 22 24 21 16 14 11 12 18 20 19 19 21 22 24 24 24 25 25 24 16 16 14 14 14 14 13 11 10
13 15 30 34 34 43 35 40 39 38 32 29 34 34 33 29 27 24 17 13 13 13 18 18 19 19 22 24 24 21 25 23 21 24 17 16 16 17 16 14 13 12 12
9 9 17 29 34 39 52 30 40 32 34 34 34 36 32 29 29 25 15 12 13 17 19 19 22 21 22 21 20 21 23 23 19 17 19 16 17 17 17 15 15 15 15
8 1 6 6 9 32 44 43 49 40 30 26 41 41 38 34 30 21 18 15 15 19 21 20 25 26 20 22 23 22 20 17 18 19 18 18 18 18 18 17 18 17 17
5 6 3 2 6 4 27 36 32 35 34 35 40 44 41 31 32 25 20 17 18 23 19 20 24 25 23 24 23 20 19 18 20 21 20 19 17 20 19 19 18 19 20
7 6 3 3 2 7 18 33 46 46 46 44 42 39 36 38 35 24 21 21 19 17 13 15 23 24 23 24 22 20 22 22 20 21 22 20 19 20 20 19 19 20 22
8 10 4 2 1 3 7 12 40 52 57 42 49 48 39 35 31 23 25 26 25 20 17 19 23 25 26 26 24 24 24 24 23 22 21 18 19 19 20 20 21 23 24
5 8 6 1 8 3 5 9 18 59 46 48 43 41 34 43 30 29 30 30 30 26 24 24 24 24 26 27 25 25 24 22 23 22 21 21 20 19 20 22 24 24 25
5 5 7 6 6 8 6 4 27 51 50 47 37 32 44 46 33 35 38 26 28 26 25 29 28 25 25 27 25 26 23 22 23 22 22 22 21 21 22 24 26 26 27
7 6 8 10 9 12 11 14 31 30 41 43 37 38 39 41 33 37 38 34 25 26 24 29 27 22 23 24 26 25 24 19 19 19 20 23 22 23 25 26 27 28 29
9 8 9 13 11 15 18 18 17 22 23 22 25 19 27 31 31 31 27 28 26 22 27 27 25 21 21 22 25 22 20 19 20 21 22 25 25 26 27 28 27 26 28
11 13 12 14 16 17 18 23 22 17 17 24 21 21 24 27 24 24 24 27 23 24 26 26 24 23 22 23 24 20 21 21 23 23 25 27 27 28 28 31 32 33 34
12 14 14 14 17 20 18 19 23 21 21 25 22 25 28 28 28 30 28 30 29 27 26 24 21 21 22 23 22 23 23 23 26 27 27 28 29 30 31 34 35 36 37
8 12 15 14 16 22 19 14 14 19 22 24 25 26 29 33 35 32 28 27 31 29 27 21 16 20 22 22 24 25 23 25 26 29 28 29 31 32 34 38 39 41 44
9 12 13 13 12 11 15 19 14 19 21 26 22 27 24 24 29 26 27 27 27 23 19 17 19 22 22 24 25 26 26 27 29 30 30 32 33 36 38 42 42 45 47
8 10 9 9 9 12 15 15 14 17 22 24 30 26 24 22 24 21 18 19 16 16 17 21 23 22 22 23 25 28 29 29 32 32 34 35 38 39 40 43 42 42 47
8 12 11 13 14 14 16 17 18 16 16 16 17 17 14 14 12 12 14 14 17 21 21 23 22 21 24 26 27 29 28 29 33 35 36 36 36 39 42 45 47 44 48
3 5 6 7 8 9 9 7 6 8 7 8 8 11 13 12 14 16 19 19 20 18 21 23 23 22 25 26 29 30 31 31 34 33 36 37 41 43 47 47 48 46 44
3 4 4 4 4 6 7 9 10 11 11 12 13 13 13 14 16 17 17 18 20 21 23 24 24 23 24 25 31 32 31 31 33 34 37 39 40 44 45 46 46 46 47

GFSSE_500_spd_087.txt.gz
Wind_Speed
24 24 32 36 40 33 34 27 24 24 32 22 24 19 27 32 31 21 16 13 9 7 5 4 4 5 8 9 8 8 7 7 9 9 9 9 9 10 11 11 11 11 11
23 23 25 31 36 33 27 30 24 25 24 25 20 22 22 31 23 19 18 15 14 11 7 4 4 6 9 11 9 12 11 11 12 13 12 10 9 12 12 11 11 11 12
28 28 32 28 37 26 34 35 30 18 25 19 16 19 19 25 23 22 20 15 10 8 5 3 6 8 10 12 10 9 9 11 13 13 13 12 11 12 12 12 11 12 11
27 31 36 38 33 33 33 38 33 22 22 24 20 17 21 24 24 22 17 13 10 9 6 5 8 9 11 11 14 13 14 15 16 14 14 13 13 12 13 12 12 11 11
27 30 36 40 42 38 32 34 35 28 26 26 23 20 25 29 27 24 18 15 11 7 7 8 9 10 9 11 18 18 17 17 16 15 16 14 12 15 15 13 11 10 9
32 36 36 39 45 43 42 36 32 32 22 24 27 21 26 32 29 21 20 17 15 12 10 8 9 10 12 15 21 20 19 18 17 17 17 17 18 19 16 13 11 11 10
24 26 34 42 38 42 40 37 35 27 28 24 29 26 24 24 23 22 22 19 16 15 12 10 12 13 16 19 22 21 20 20 20 20 21 21 20 15 14 12 13 12 13
25 24 25 29 30 43 39 30 25 30 27 23 23 30 32 39 27 23 20 20 17 15 12 13 13 13 17 20 22 22 23 22 21 21 22 21 17 17 15 15 15 15 14
25 14 16 13 22 24 43 34 25 28 29 27 21 27 32 35 31 28 26 22 19 17 16 14 13 13 17 21 23 22 21 21 22 24 21 20 19 18 16 17 17 16 16
22 8 13 10 16 23 39 38 35 28 21 25 28 24 32 33 32 29 24 22 20 19 15 11 12 15 18 21 20 19 21 24 24 26 25 19 19 19 18 17 17 16 17
18 3 5 9 17 25 31 41 34 38 35 23 29 28 39 34 34 30 28 24 17 18 15 16 16 19 21 20 16 17 22 22 23 21 17 19 20 20 19 18 18 18 18
12 10 9 2 10 9 26 38 33 41 38 32 25 34 40 43 37 32 27 24 22 19 18 16 19 22 22 18 17 18 21 24 20 19 19 21 21 20 19 20 19 19 19
4 6 4 3 6 11 17 36 46 51 34 32 32 36 43 40 35 30 25 24 21 21 19 16 18 20 20 20 20 18 20 22 20 20 22 23 22 21 20 19 21 20 20
4 6 2 4 6 9 13 27 40 45 43 42 39 35 45 43 37 32 30 29 27 26 20 17 16 18 19 23 25 24 21 21 22 23 22 22 23 21 20 21 21 20 21
9 9 5 5 4 7 13 22 26 38 37 45 39 40 44 39 42 35 33 32 28 27 25 22 23 25 23 23 26 25 24 24 25 25 25 23 23 22 21 21 21 22 22
8 9 7 9 3 5 11 21 24 31 44 43 43 43 45 42 40 40 37 34 31 30 28 28 26 27 28 26 26 26 26 23 24 24 25 26 25 22 22 22 23 24 24
9 10 9 10 7 5 7 18 24 27 46 44 46 44 47 41 38 43 38 37 34 32 25 22 26 27 27 25 23 24 23 24 25 24 22 25 25 25 24 24 25 25 26
12 11 12 11 11 6 5 15 20 31 40 39 43 44 33 41 42 51 47 33 35 34 30 28 29 28 26 22 20 23 25 25 26 22 22 23 24 25 25 26 27 27 27
14 14 12 11 13 7 12 24 31 30 37 27 45 42 36 31 42 44 38 35 33 31 33 28 30 27 26 21 19 20 21 23 20 22 23 26 27 26 26 28 29 29 31
13 14 13 12 13 13 15 25 24 26 27 36 39 39 35 21 21 24 24 25 26 27 28 29 25 27 24 22 22 23 24 24 23 25 25 27 29 30 29 31 33 34 34
9 12 18 16 15 15 14 17 25 15 23 28 32 31 27 22 26 26 23 24 27 28 27 30 27 23 23 21 20 23 23 23 27 28 26 29 32 33 33 34 36 36 38
7 12 14 17 17 18 21 14 15 17 17 22 26 25 27 28 27 28 30 30 31 26 24 28 25 22 18 18 23 25 25 26 30 30 29 33 34 35 36 36 39 40 42
2 4 8 11 16 16 22 20 19 14 18 19 23 22 22 28 27 28 30 30 25 22 21 20 19 18 19 20 24 28 29 29 31 32 34 35 37 37 39 41 43 42 43
4 4 4 4 8 14 18 17 18 17 19 23 26 28 23 27 24 22 23 19 15 13 13 18 19 20 21 24 29 31 29 29 29 30 33 36 37 38 41 42 43 46 45
3 4 3 4 5 8 11 11 11 10 8 7 13 20 25 21 19 16 16 13 12 15 18 18 20 23 26 28 31 32 31 29 30 35 35 35 37 38 40 41 44 47 49
4 3 5 5 5 5 7 8 10 9 8 8 9 11 12 13 13 14 13 12 15 16 19 21 22 22 25 27 28 32 31 32 35 37 40 37 37 37 40 42 44 48 52

GFSSE_500_spd_090.txt.gz
Wind_Speed
31 31 28 34 38 37 28 28 29 27 27 27 31 27 20 21 22 24 30 27 25 21 17 14 11 9 6 4 5 4 4 6 5 4 5 7 8 7 8 9 9 11 11
25 26 26 27 35 37 37 32 29 31 20 22 28 27 25 19 22 30 30 27 23 19 15 13 11 9 7 6 6 5 8 9 8 8 7 8 9 9 11 11 11 12 10
22 26 26 28 31 36 41 38 35 27 26 25 20 28 25 21 26 35 27 24 21 17 15 13 12 10 10 8 8 4 6 7 9 10 10 12 12 12 11 12 12 11 13
25 26 29 30 32 37 27 36 33 31 25 24 27 24 20 19 22 34 29 27 19 20 17 15 12 10 9 9 8 8 9 11 13 11 11 11 12 14 12 13 13 14 13
27 30 29 31 32 30 30 30 35 32 29 24 22 19 18 25 26 24 22 22 21 20 18 13 12 12 12 11 10 11 12 14 14 14 14 13 14 15 15 16 15 15 12
29 31 32 36 36 39 35 32 37 28 29 26 26 23 21 24 27 25 25 25 22 19 16 14 12 11 9 11 11 11 14 15 16 16 16 17 17 18 19 19 17 15 13
24 26 30 33 35 49 44 39 30 39 30 25 24 20 24 28 30 29 28 24 21 20 18 15 15 13 12 13 14 16 16 16 18 20 18 20 21 22 20 17 16 14 14
24 24 32 28 30 31 37 50 45 39 30 29 27 21 27 27 29 41 30 27 22 20 19 17 15 13 13 12 13 17 18 20 21 21 21 21 22 22 18 16 16 16 16
27 29 21 22 25 31 34 57 49 35 32 33 29 24 25 28 29 34 30 25 23 20 19 17 17 15 12 14 16 19 22 24 21 21 21 24 22 21 19 18 17 18 18
26 20 13 12 10 10 29 39 36 37 32 33 30 29 26 32 29 34 30 27 24 21 20 21 19 18 16 16 17 20 18 19 19 20 21 23 23 23 20 19 19 18 18
21 20 4 5 8 8 20 34 44 41 29 25 32 30 28 29 34 36 34 29 26 25 22 24 21 19 13 14 17 17 13 16 18 20 22 21 20 19 19 20 19 18 17
14 5 7 1 4 14 15 37 35 30 44 24 31 28 28 35 35 38 35 30 29 26 25 26 21 14 12 16 15 18 17 20 18 20 19 18 19 18 20 21 19 19 18
15 4 4 5 12 11 17 27 34 47 44 34 35 23 28 35 36 37 35 34 30 26 25 24 19 12 15 16 18 22 22 21 20 19 19 20 19 21 23 23 21 19 19
16 11 7 10 11 17 17 22 34 44 38 35 36 31 28 36 36 39 36 34 31 28 27 23 19 16 15 17 18 21 24 26 25 23 22 21 21 22 22 23 21 20 19
14 19 16 13 12 13 16 20 25 42 46 43 37 33 34 37 44 44 40 38 34 30 29 25 21 19 18 22 23 23 24 26 26 26 23 24 24 22 23 23 22 20 19
14 17 16 15 14 12 16 17 25 41 44 41 39 35 34 33 44 47 45 40 35 33 32 27 24 22 26 29 28 28 28 27 26 26 26 25 25 23 23 23 21 21 20
16 15 14 14 16 13 14 14 27 36 52 50 49 38 35 35 39 46 43 43 39 36 34 29 28 29 29 28 25 28 27 27 26 24 23 24 23 25 24 25 23 22 23
18 15 16 15 16 13 11 14 24 27 42 40 45 41 39 38 42 50 46 49 42 41 36 35 26 27 28 29 27 28 27 25 24 27 28 25 21 22 25 24 25 25 26
18 16 16 15 14 14 9 13 22 26 29 41 39 47 40 43 48 49 46 49 48 46 38 36 32 34 31 29 28 30 29 27 27 25 22 21 20 23 24 27 27 28 29
15 17 15 16 14 13 8 17 17 19 25 38 40 43 49 44 37 46 42 45 48 48 36 33 29 32 28 25 26 28 28 27 25 23 22 23 24 26 27 29 31 33 33
6 14 15 15 16 14 10 9 14 16 20 41 31 40 40 44 41 26 35 45 46 42 45 27 27 31 28 25 22 25 23 22 24 23 25 25 27 27 30 33 34 36 36
5 9 14 15 16 13 13 18 15 12 16 28 35 33 35 37 30 20 20 22 31 25 24 26 28 27 25 22 22 19 17 18 22 25 27 29 31 32 33 35 36 38 41
5 7 10 14 17 17 15 14 15 4 10 13 25 34 37 35 31 24 25 24 26 26 25 26 22 20 18 18 19 18 19 21 26 29 31 33 35 36 37 39 40 41 44
7 1 2 8 14 13 14 19 18 11 13 12 12 16 22 25 22 24 25 24 20 23 22 20 15 13 14 18 19 21 22 25 30 31 34 36 37 38 39 41 38 39 42
6 5 3 1 7 13 15 18 21 17 17 17 17 21 20 18 19 21 22 21 18 15 15 12 13 15 17 19 21 23 25 27 31 36 39 35 37 42 41 42 41 40 43
3 3 2 2 1 2 5 8 11 13 10 11 11 16 21 21 19 15 12 11 11 12 11 13 15 16 19 21 21 24 26 29 30 35 36 36 42 42 46 46 42 43 45

GFSSE_500_spd_093.txt.gz
Wind_Speed
30 28 27 21 26 31 34 36 36 33 29 28 32 29 27 26 28 24 23 24 27 28 28 23 22 17 15 12 11 9 10 9 8 7 8 6 7 7 7 8 10 11 13
22 18 20 18 16 22 33 33 29 28 26 28 28 28 28 29 24 27 25 24 27 30 27 22 20 18 16 14 11 10 9 7 5 7 8 6 6 7 9 10 12 13 13
26 22 20 21 20 18 25 33 35 34 31 27 23 24 28 31 25 23 27 28 28 28 24 23 19 18 16 12 10 10 11 10 11 10 9 8 9 11 13 13 14 14 14
28 27 25 24 25 23 26 32 38 36 33 30 26 22 23 25 25 26 30 30 28 29 26 23 19 16 13 15 14 16 13 11 9 9 9 9 10 12 13 13 14 14 15
29 30 30 29 29 31 31 34 38 43 37 31 27 26 22 22 26 28 30 36 30 27 23 19 18 18 16 14 14 13 11 9 9 10 10 10 12 13 14 15 15 18 17
29 30 32 31 33 36 38 36 31 36 41 35 26 24 26 23 24 28 37 36 28 26 21 21 19 18 18 19 15 13 11 10 10 11 13 13 14 15 15 16 19 20 17
31 29 28 31 29 32 41 39 40 37 38 36 32 25 22 20 25 31 42 33 25 21 22 19 19 17 15 14 15 13 12 12 13 15 15 17 15 16 16 18 20 17 17
29 26 28 33 34 37 45 42 51 47 33 36 37 29 25 23 29 28 32 28 24 23 22 20 19 17 16 16 15 16 15 15 17 17 17 16 17 17 17 19 17 16 16
28 28 30 33 38 36 38 38 37 40 55 40 34 30 25 25 26 32 31 29 26 24 22 22 19 17 18 16 16 16 16 15 18 20 22 20 20 20 20 19 18 17 17
30 29 32 28 25 22 25 29 31 38 43 31 33 31 28 24 30 32 36 33 30 27 25 23 21 18 18 17 18 16 12 17 12 16 18 19 19 21 21 18 17 17 19
27 24 27 24 15 19 19 22 33 43 42 48 39 33 33 27 29 29 37 41 34 30 25 21 21 19 20 20 17 17 16 12 14 14 17 18 19 21 17 17 17 19 19
15 19 19 11 9 12 16 12 24 40 49 44 40 40 34 30 30 31 38 35 32 30 25 22 23 21 20 19 18 15 14 17 16 15 15 16 19 17 16 18 18 19 20
17 14 13 11 15 8 10 13 23 33 47 47 45 36 29 28 27 34 37 31 31 29 26 23 23 25 21 20 19 14 16 18 19 19 22 21 18 18 19 19 18 21 21
25 17 14 12 13 14 8 10 17 30 35 50 30 30 29 30 30 32 37 37 34 31 28 26 24 23 21 20 18 14 13 16 18 19 22 22 22 21 21 21 21 22 21
25 23 14 17 15 16 17 13 18 34 25 44 39 25 27 31 30 40 39 39 37 35 29 30 27 24 23 22 19 19 19 20 22 23 25 24 24 22 22 20 21 21 20
24 24 18 19 14 15 18 19 19 22 30 38 46 34 28 34 33 40 40 40 37 36 33 33 28 26 24 23 23 22 24 25 24 24 26 25 25 25 24 23 21 20 20
22 24 19 19 16 14 17 18 20 25 36 45 44 38 41 35 36 40 41 40 39 40 36 34 31 29 28 27 25 24 26 26 25 23 27 26 25 23 23 25 24 22 21
20 22 20 20 16 13 15 19 22 28 34 49 48 37 39 42 36 39 41 44 45 41 41 38 36 30 30 28 29 31 29 28 28 25 25 25 27 26 26 21 20 21 22
20 19 19 19 16 13 17 20 21 24 32 37 47 39 37 36 33 37 37 41 46 45 44 41 38 33 35 31 34 32 31 30 27 25 27 27 24 23 22 20 20 22 24
17 16 17 16 16 12 18 22 12 22 22 28 43 45 42 40 35 34 39 39 46 46 44 46 45 39 36 34 36 35 32 25 23 26 25 23 22 20 21 22 24 26 27
16 12 13 14 14 14 13 11 9 13 23 23 33 41 47 47 43 39 41 37 41 46 44 46 50 46 34 37 37 31 20 19 21 21 21 20 20 21 23 25 26 29 30
16 11 11 12 14 13 13 13 8 11 15 20 35 41 38 43 45 41 38 37 41 43 43 48 36 35 32 36 31 21 18 18 17 17 18 19 21 24 26 29 30 31 33
13 11 12 12 13 14 13 11 16 7 12 17 22 32 37 36 33 34 33 28 25 22 21 21 24 27 27 23 19 18 15 15 14 19 20 23 27 30 31 33 36 37 39
11 9 9 10 11 14 15 12 13 12 5 7 14 31 36 35 36 28 27 27 19 20 22 20 20 21 15 15 15 13 14 16 18 21 23 24 29 29 32 34 35 37 39
8 7 5 7 8 10 13 12 14 14 13 9 10 10 13 27 31 31 26 21 15 14 13 17 14 12 12 13 14 16 15 18 21 24 27 32 31 34 36 36 38 38 40
6 8 6 5 6 6 4 9 11 13 15 14 13 15 14 14 15 16 17 16 13 11 11 13 13 12 11 12 14 17 18 21 24 25 30 29 33 36 34 37 40 44 46

GFSSE_500_spd_096.txt.gz
Wind_Speed
31 30 32 31 26 31 31 31 33 35 35 35 33 31 29 29 26 28 28 28 26 24 22 21 25 25 22 21 19 18 15 12 11 10 8 7 7 6 7 6 7 9 10
35 29 25 24 18 18 24 26 30 32 34 34 34 32 32 30 27 26 26 32 31 27 28 29 29 26 24 22 19 17 13 10 9 8 7 6 6 5 4 7 9 11 12
33 30 28 25 22 18 19 23 27 28 29 31 33 32 34 30 28 24 26 28 26 24 27 31 30 25 24 21 18 13 12 9 10 11 10 10 10 10 8 8 10 12 14
30 30 26 29 23 23 22 21 24 30 29 28 33 34 32 28 29 29 27 28 27 25 26 29 27 24 22 20 18 13 11 11 13 15 14 12 10 9 9 10 9 12 13
26 27 26 26 26 27 27 28 28 29 37 33 32 30 27 29 30 30 28 27 29 29 29 29 27 24 18 17 14 10 13 15 17 15 9 9 8 10 10 11 9 11 14
26 24 26 29 30 30 30 32 32 35 31 40 39 37 30 24 24 25 26 28 31 33 31 27 24 22 16 18 15 18 21 21 14 11 11 10 10 10 11 12 12 14 16
29 28 24 28 28 29 32 32 34 37 38 38 49 36 36 26 24 23 24 29 32 38 34 29 25 20 20 21 19 21 20 14 12 11 11 11 11 11 12 13 16 16 13
28 27 25 27 27 31 35 37 35 40 50 43 47 35 36 30 30 27 25 31 36 40 32 24 21 21 22 21 19 18 16 13 11 12 12 13 14 14 16 15 16 14 13
28 27 29 28 31 33 35 36 40 44 43 53 45 41 32 33 31 34 31 35 34 30 24 22 22 20 20 19 16 16 15 12 12 13 15 16 16 16 17 18 17 14 15
27 26 28 27 32 31 34 28 29 31 37 46 46 35 34 27 30 29 26 34 40 30 23 21 23 22 21 17 17 17 14 11 11 10 10 11 14 17 17 16 17 16 16
23 19 20 22 35 28 20 23 26 28 31 44 45 39 36 36 31 31 30 27 27 28 28 28 24 21 20 17 16 17 16 15 10 9 10 11 11 14 16 15 15 14 14
14 20 19 30 26 17 15 19 21 25 27 34 55 36 41 37 33 36 29 25 29 29 28 27 25 23 21 18 17 17 17 15 17 13 14 15 15 14 13 14 13 14 15
17 18 22 23 23 21 21 16 12 18 33 43 35 50 43 29 32 35 31 28 32 35 30 27 26 25 20 18 17 21 18 17 15 14 14 13 16 14 15 15 15 15 16
20 18 21 21 18 24 23 14 11 14 37 43 54 41 39 40 33 31 27 26 36 40 33 30 30 26 19 19 20 21 20 14 12 13 15 15 16 15 16 17 18 17 18
25 22 18 19 19 20 17 17 10 8 33 43 52 53 44 30 32 31 32 29 35 30 34 33 30 25 23 21 22 21 21 15 14 20 19 20 16 17 18 19 21 17 17
25 25 21 17 17 17 13 15 11 14 29 40 31 41 35 33 32 30 32 32 36 35 34 33 31 26 25 22 22 23 22 19 22 20 20 20 18 19 19 20 21 18 18
26 25 20 17 14 13 13 9 12 11 16 23 37 43 32 30 28 32 32 33 38 39 35 35 33 27 27 26 25 23 23 23 23 24 22 21 20 19 20 21 21 19 20
27 24 20 16 14 11 13 11 8 10 18 19 35 42 34 26 26 30 31 34 38 40 38 36 37 32 30 30 27 26 25 28 26 24 23 21 19 19 20 21 21 20 21
25 22 18 15 14 13 11 11 11 16 19 24 35 44 38 33 30 28 31 33 36 39 38 38 37 38 35 32 31 29 29 31 30 28 24 19 19 18 18 19 18 18 18
22 18 17 12 14 14 11 11 13 17 16 22 33 49 45 42 40 39 33 28 32 37 39 41 41 41 39 38 34 32 30 32 30 25 20 17 15 15 15 14 18 20 20
20 17 15 9 12 14 12 10 12 10 12 16 26 43 46 38 36 34 33 30 33 38 34 37 45 44 40 43 43 36 33 32 22 20 14 12 12 13 14 16 20 21 23
16 16 14 10 11 12 13 9 11 4 7 18 19 29 48 43 34 35 34 28 29 34 36 27 35 40 38 41 31 34 32 20 15 14 13 11 13 15 17 19 19 23 26
14 13 13 11 11 11 11 8 6 15 8 5 15 25 36 41 38 40 37 35 33 34 29 30 35 36 22 23 30 25 16 14 13 15 12 13 16 18 20 23 26 27 26
10 11 11 11 11 10 12 13 7 5 13 6 9 18 29 39 35 37 33 36 29 28 29 29 27 22 18 18 16 11 13 15 13 13 15 17 18 20 24 28 27 28 31
9 8 8 10 10 12 10 10 9 7 6 7 6 6 12 24 25 28 33 36 30 25 22 17 15 14 15 11 10 16 15 14 13 16 18 21 21 24 28 27 30 30 31
8 8 5 7 8 7 9 8 9 6 9 9 8 7 7 8 15 29 31 27 29 21 17 14 11 14 12 14 13 14 13 12 12 15 18 22 26 28 30 30 29 34 40

GFSSE_500_spd_099.txt.gz
Wind_Speed
36 31 30 32 34 27 29 29 34 38 38 37 34 37 35 33 32 29 29 28 27 26 22 21 21 22 24 25 25 23 20 19 17 15 13 12 11 10 8 7 6 6 7
31 30 28 28 26 25 23 25 21 14 33 32 35 35 36 35 33 32 29 26 27 28 28 25 21 21 25 26 25 22 20 16 15 13 13 11 10 9 9 7 6 8 10
28 27 30 28 27 27 24 21 21 24 30 32 33 34 33 34 34 33 29 26 26 30 29 27 25 25 25 26 23 20 19 14 12 10 9 9 11 10 8 9 6 9 11
25 26 26 27 28 27 25 22 22 21 24 29 33 33 31 33 33 30 28 27 28 29 31 30 29 29 26 24 22 20 16 13 11 9 12 13 11 8 10 10 8 9 9
24 24 25 26 27 24 23 25 24 24 25 28 33 35 29 28 29 30 27 28 25 28 27 27 28 31 26 24 21 19 12 12 12 15 16 17 15 13 13 10 8 10 12
29 26 25 27 27 27 28 27 26 26 29 32 34 42 33 25 34 28 29 31 28 28 27 26 29 28 26 22 21 16 13 12 17 16 16 14 14 11 11 10 12 12 13
30 26 22 24 25 26 26 23 24 28 31 33 33 34 33 33 26 29 33 30 28 29 29 31 35 31 25 26 21 18 16 21 18 20 16 13 13 12 13 13 13 11 11
30 25 25 25 26 23 23 25 28 30 35 40 44 35 42 34 32 28 29 28 26 28 32 33 31 31 32 26 20 19 19 19 19 14 13 14 14 12 12 12 12 10 10
28 25 24 24 24 22 24 29 32 32 36 36 34 36 37 28 28 30 28 27 28 25 29 36 41 34 28 23 22 20 17 20 17 13 12 13 13 12 12 12 9 10 11
24 22 19 16 16 23 29 29 29 31 33 35 29 31 43 45 33 36 26 37 24 26 31 37 37 29 20 20 21 17 18 16 16 12 10 9 8 7 10 11 12 13 13
21 23 15 17 25 26 17 17 20 22 25 31 32 34 40 40 35 33 37 33 27 29 32 36 28 23 23 20 18 14 13 15 13 11 9 9 5 6 9 8 12 12 11
17 22 20 17 18 21 18 18 16 22 25 30 30 33 36 44 42 41 38 35 22 30 38 28 23 24 22 20 17 12 14 15 15 16 12 9 9 12 12 12 13 11 10
17 19 20 17 16 17 20 20 22 16 22 29 32 30 43 53 45 35 33 23 16 29 29 23 25 23 23 20 15 12 15 15 16 15 13 8 7 12 13 12 12 13 12
21 23 22 19 16 13 15 16 21 19 22 26 30 36 47 45 42 33 31 25 22 20 28 30 28 28 23 20 16 12 19 16 17 11 9 10 11 12 12 12 12 13 14
20 23 24 23 15 12 12 14 17 19 19 25 27 45 52 51 40 29 32 27 27 29 33 34 31 27 25 22 17 14 19 16 15 13 15 12 12 13 13 12 13 15 15
22 25 24 24 16 10 8 12 15 22 9 27 40 44 56 42 32 29 26 29 28 27 36 39 35 29 27 25 19 16 18 18 18 19 14 13 14 16 16 14 14 16 17
23 24 25 20 17 11 6 9 11 20 12 28 33 44 54 41 25 31 29 30 28 27 33 36 34 32 28 25 21 18 19 22 20 20 21 16 17 18 17 13 15 17 15
23 23 23 18 16 11 5 5 6 10 11 18 27 49 48 45 28 32 29 28 31 31 37 38 34 33 30 26 24 22 21 24 24 22 19 21 20 20 18 13 13 14 16
24 21 22 16 12 8 5 5 4 6 11 13 16 44 44 44 36 31 28 31 32 32 34 44 36 34 31 31 28 26 25 26 26 25 23 23 21 20 16 13 14 15 15
24 18 20 16 13 7 4 5 4 4 9 12 14 33 47 43 35 29 27 26 26 25 30 35 36 33 34 32 33 32 32 31 30 27 24 20 18 17 16 13 13 14 14
23 18 18 15 11 10 5 6 4 5 5 11 20 24 45 46 31 27 25 27 19 22 27 31 34 36 37 38 39 36 35 40 36 29 19 18 17 15 13 12 14 14 16
22 16 16 15 9 8 7 5 2 4 5 13 22 30 42 47 42 40 33 29 29 28 26 29 34 35 30 32 33 33 35 30 27 25 17 17 15 14 14 13 16 17 18
19 15 13 14 10 7 5 4 4 4 7 9 20 23 32 44 40 44 39 33 32 31 24 25 28 31 26 20 18 25 27 21 21 15 16 18 13 12 13 13 15 19 21
18 13 11 11 8 9 1 4 5 3 6 3 10 16 25 35 42 38 33 28 34 34 26 27 26 22 31 26 18 18 20 19 15 18 18 15 13 14 14 16 16 16 20
16 12 9 9 6 6 6 1 4 7 3 4 3 11 25 22 28 30 40 35 33 35 28 22 24 25 23 18 15 14 17 18 19 19 17 16 14 16 18 19 22 26 27
14 11 9 7 7 5 6 5 5 6 9 9 7 1 1 13 29 31 32 32 36 31 34 34 24 21 18 17 16 18 19 19 18 17 17 18 18 20 20 23 25 32 32

GFSSE_500_spd_102.txt.gz
Wind_Speed
34 30 29 31 33 34 35 33 32 29 29 33 35 39 37 39 37 34 33 31 30 27 26 26 26 25 23 22 23 24 24 22 22 20 18 18 15 14 12 10 10 8 8
26 28 31 31 29 30 32 31 30 27 29 36 34 36 37 39 38 35 34 33 31 29 27 23 24 25 23 23 24 25 23 22 21 21 19 16 14 12 10 9 9 9 9
28 28 28 28 27 28 30 32 28 24 23 18 27 28 33 38 39 36 34 32 28 27 27 26 26 24 21 23 23 23 23 22 20 16 14 12 11 11 11 11 11 10 9
21 22 25 27 29 29 29 30 27 25 26 29 29 29 28 33 35 35 30 28 29 27 26 27 27 28 24 23 23 21 18 19 16 15 11 12 12 15 14 13 11 9 10
18 21 24 28 28 29 27 26 24 25 25 26 27 29 29 30 31 29 28 27 28 28 27 29 29 30 28 25 24 20 23 16 14 15 15 13 13 17 13 12 12 10 9
24 26 26 28 29 27 27 25 27 28 28 30 31 27 40 37 34 27 26 27 28 26 25 24 26 30 25 29 24 22 19 20 18 16 15 15 16 19 15 11 11 12 12
24 26 29 27 29 26 23 26 27 28 30 31 31 27 30 39 40 25 25 29 30 29 23 25 26 23 29 27 21 22 21 19 15 14 13 12 12 15 14 14 13 11 8
26 30 29 25 26 26 26 26 26 28 29 29 36 37 33 43 32 36 32 31 31 29 26 24 25 27 29 26 26 26 25 11 16 17 16 12 15 16 14 11 11 10 10
26 27 26 24 19 14 18 21 26 30 33 33 35 37 39 30 36 29 38 34 31 30 26 26 31 31 33 29 25 28 24 17 17 16 15 14 14 13 12 12 12 10 13
27 26 24 21 20 17 21 19 26 34 35 36 36 32 28 24 32 31 30 30 29 27 28 29 33 32 31 35 31 30 20 17 18 17 16 13 12 8 8 12 14 15 13
26 27 26 24 21 22 23 14 12 17 25 26 29 27 25 22 35 23 28 32 30 27 28 31 35 31 34 38 28 20 17 16 16 13 11 10 10 9 10 12 13 16 12
22 22 27 26 23 23 20 18 15 16 19 21 23 24 27 23 39 39 32 30 31 31 26 29 33 28 33 31 21 20 14 14 14 11 13 9 10 12 12 11 13 14 13
18 25 24 26 24 24 22 19 15 13 15 20 26 30 31 32 36 35 34 35 36 31 23 28 27 25 26 20 20 18 13 14 13 10 9 12 12 11 11 12 13 15 17
17 21 26 24 26 24 22 20 16 12 13 21 28 30 30 32 34 40 42 31 33 28 28 27 30 27 20 21 20 16 16 15 13 11 9 9 11 11 11 11 12 16 17
23 19 25 27 26 23 19 18 14 14 16 20 27 32 32 34 40 44 46 23 26 31 24 32 32 21 22 24 20 20 18 17 12 11 11 12 16 13 12 13 15 16 18
25 24 25 28 23 22 17 16 13 12 15 22 25 30 33 36 42 53 47 26 29 30 23 24 29 26 25 23 23 20 17 16 15 15 16 15 14 16 13 15 17 18 18
27 25 26 26 22 20 14 14 11 8 16 9 14 22 42 52 46 46 35 31 32 28 27 25 27 29 27 24 25 20 19 18 19 16 18 20 18 16 18 19 19 19 17
25 26 26 25 19 14 11 12 10 7 13 9 7 27 36 45 42 39 37 31 35 31 29 30 33 35 30 27 26 25 25 22 20 17 20 22 19 20 22 22 20 19 20
22 25 24 24 17 10 9 11 9 6 4 13 12 22 38 41 46 40 28 31 33 31 29 27 31 30 28 28 29 29 28 24 23 22 23 25 23 25 25 22 21 20 19
20 23 23 22 20 12 9 12 10 6 4 1 2 33 39 52 48 36 24 30 29 33 31 24 24 31 33 30 30 31 32 30 29 29 28 31 27 25 23 22 21 19 20
18 20 22 22 19 13 10 12 12 8 5 5 4 13 45 46 43 43 27 28 32 28 24 22 26 29 35 34 33 33 35 35 35 34 32 26 28 25 24 22 20 19 19
17 19 20 20 18 13 12 11 13 9 5 3 10 13 37 47 53 47 33 30 26 25 19 20 22 24 28 31 37 37 37 37 37 32 30 27 27 25 22 20 19 19 19
16 18 17 17 17 13 12 11 11 9 6 3 13 23 24 42 48 47 30 28 25 25 19 19 19 22 25 29 34 29 29 25 29 25 26 26 26 23 20 20 19 18 18
15 16 15 15 15 12 10 13 12 11 3 3 15 22 33 36 44 47 36 30 30 30 26 24 23 23 26 26 29 29 31 31 32 27 24 26 22 21 20 17 17 19 20
14 13 13 13 13 9 9 11 12 14 7 5 8 20 32 36 43 45 37 35 42 34 30 29 29 26 27 27 27 34 36 32 25 24 26 26 23 25 25 23 21 20 22
14 11 13 12 12 8 6 6 7 11 12 9 9 13 14 23 24 30 40 34 29 33 38 34 33 25 26 28 29 33 28 25 24 27 26 26 25 27 26 22 21 22 25

GFSSE_500_spd_105.txt.gz
Wind_Speed
33 30 31 32 31 29 29 28 27 30 29 29 28 30 34 35 33 32 32 33 32 30 28 25 22 21 20 20 20 20 20 21 21 22 22 21 19 17 16 14 13 12 11
33 31 31 30 29 27 25 26 27 28 30 30 28 31 31 33 33 32 30 30 32 31 30 27 24 22 20 20 20 19 19 21 24 24 23 20 19 17 15 14 13 10 9
30 29 28 27 24 26 29 29 30 29 30 29 24 27 19 26 30 34 31 28 31 31 30 27 26 24 21 22 20 20 20 22 21 20 20 16 15 14 13 12 11 8 9
30 28 25 25 27 30 31 31 32 30 28 28 24 30 28 28 30 30 31 30 31 29 29 29 29 25 21 19 19 21 20 20 19 16 14 13 12 12 11 10 12 11 13
27 25 24 27 28 30 32 33 33 31 26 26 27 30 29 31 29 26 26 28 27 28 29 28 27 24 23 23 20 22 19 21 18 19 18 18 16 12 13 14 11 9 8
26 23 24 26 30 30 29 32 33 32 27 27 29 32 31 31 30 29 25 28 28 28 28 28 25 24 22 24 24 25 23 21 20 17 17 15 15 11 10 10 10 8 10
25 24 24 26 29 27 27 29 31 31 32 31 39 39 38 27 30 32 20 23 30 27 26 24 22 21 23 24 22 22 23 25 22 24 13 12 14 14 12 11 11 12 11
24 24 22 26 25 25 25 23 26 29 31 34 32 28 30 35 27 40 20 29 31 29 26 21 21 22 22 26 25 23 24 28 26 17 13 14 11 15 12 13 12 11 10
25 26 23 24 23 24 22 20 23 23 32 37 31 31 35 34 26 29 24 32 30 29 24 24 21 20 22 22 28 23 22 22 15 11 8 8 11 12 13 13 12 14 15
27 27 25 23 23 24 25 27 27 28 35 37 37 32 32 29 29 28 30 29 28 26 28 27 24 22 22 26 29 24 27 27 18 9 14 12 12 14 12 14 16 17 15
24 26 26 24 24 24 25 27 25 18 19 20 26 29 33 28 24 33 31 28 39 26 29 27 26 24 26 29 26 27 32 30 19 14 14 12 13 11 13 13 12 14 16
23 22 23 26 28 29 28 26 25 24 26 20 16 22 28 30 28 28 27 37 36 26 28 29 25 26 29 31 36 35 35 17 17 15 12 12 10 11 11 15 15 15 17
22 21 19 23 30 31 33 31 28 26 24 17 18 20 25 31 25 24 29 34 29 22 25 26 22 27 30 29 29 29 24 15 16 14 14 12 13 13 14 14 16 18 18
23 20 19 20 29 33 34 35 26 25 23 21 18 24 27 27 25 22 36 30 32 26 28 28 20 26 29 28 33 34 19 19 16 15 12 12 11 12 14 17 18 18 18
25 18 18 21 27 30 30 32 26 23 24 22 19 24 31 31 36 35 43 47 35 34 29 26 23 25 25 26 21 21 21 19 16 14 14 13 13 17 17 18 16 17 19
25 20 19 23 27 27 26 26 21 22 23 22 28 27 32 34 36 41 38 42 36 34 31 30 23 26 22 27 23 20 20 17 16 17 17 17 18 19 19 18 18 20 23
23 21 20 24 25 24 23 21 18 20 21 21 24 24 31 39 38 39 40 42 34 32 28 29 25 24 25 22 22 18 19 19 19 20 19 20 21 18 19 21 21 23 25
21 23 22 22 24 22 22 18 17 19 20 23 18 22 30 38 41 44 45 47 28 26 30 26 22 31 27 24 22 23 24 22 20 19 19 20 22 22 22 24 24 26 27
21 25 22 20 22 22 19 18 18 18 19 19 13 15 21 34 39 42 54 46 30 27 30 27 24 27 27 27 25 26 24 22 22 21 23 24 23 24 28 30 31 30 27
21 26 21 19 20 21 18 17 17 18 17 13 7 8 21 25 36 37 49 45 35 28 32 31 28 26 30 32 29 28 25 26 26 27 28 30 29 29 31 34 33 31 28
21 22 20 17 17 20 19 18 18 18 17 13 7 16 13 30 42 46 48 38 26 30 31 31 28 26 29 31 28 27 27 29 30 31 34 35 34 35 33 32 34 32 30
24 21 20 16 15 18 18 20 18 18 17 12 15 11 28 31 48 45 39 23 28 29 33 33 26 24 24 28 31 35 35 33 33 35 36 38 41 38 35 32 34 30 29
23 21 19 15 15 16 16 20 17 18 16 14 14 19 23 42 50 49 36 26 25 27 26 23 24 22 25 29 29 32 33 34 35 32 34 34 35 32 31 33 32 28 27
22 19 17 14 14 15 15 19 16 19 18 16 16 26 18 40 46 47 43 31 29 27 28 27 23 23 24 25 23 23 27 30 33 32 35 35 35 34 33 32 27 26 25
23 19 16 14 15 13 13 17 15 18 18 13 15 19 23 21 45 42 46 35 34 37 38 32 27 23 25 25 22 25 25 25 27 38 40 41 37 35 33 28 25 24 25
22 18 14 14 16 13 12 14 14 15 18 13 15 16 27 21 36 37 41 38 35 37 33 32 32 30 28 29 28 29 27 31 36 39 40 35 34 35 32 25 23 25 25

GFSSE_500_spd_108.txt.gz
Wind_Speed
25 27 29 29 31 30 28 23 21 21 21 23 24 23 21 23 26 29 28 28 27 27 24 23 22 20 18 18 16 17 17 15 15 18 18 19 21 20 17 16 15 13 11
25 27 29 30 29 27 25 25 26 27 27 27 26 26 23 25 29 27 28 29 28 29 27 26 24 21 17 17 15 16 15 16 16 18 19 18 18 18 17 16 13 12 10
24 26 27 27 26 24 24 26 27 29 29 28 28 27 24 23 20 26 27 25 27 29 29 28 26 21 18 17 16 18 16 16 16 17 18 16 16 15 15 13 11 10 10
24 24 25 27 25 24 26 29 28 29 31 29 29 29 25 23 19 20 21 21 24 30 30 27 24 22 18 16 17 18 17 16 15 14 14 14 14 14 13 11 9 8 11
23 24 25 25 25 25 27 29 30 30 30 29 29 31 25 26 27 24 24 18 17 26 28 28 26 24 21 17 19 17 16 15 15 15 17 17 15 11 14 14 16 11 10
23 24 24 25 23 23 25 24 27 29 30 29 28 34 24 27 30 25 22 20 17 23 29 28 27 26 22 21 22 20 17 17 18 19 16 17 14 14 14 7 6 6 7
23 23 21 22 22 25 25 25 25 27 28 28 29 30 30 30 25 25 20 23 19 20 28 29 25 24 24 22 19 19 19 15 18 17 17 19 22 11 10 11 8 9 10
23 23 21 21 20 22 26 27 26 26 27 28 28 28 31 22 31 37 19 28 30 17 21 26 23 25 25 23 20 23 22 18 17 23 22 17 14 18 21 12 9 12 13
23 23 19 19 17 20 23 26 26 29 33 33 27 29 27 28 31 23 32 23 19 17 14 23 22 24 21 21 22 21 18 18 22 23 30 17 12 6 7 8 12 15 15
23 24 21 19 15 16 22 27 28 27 29 34 27 25 27 30 27 30 23 20 23 23 17 21 22 24 23 24 21 22 23 21 26 18 5 5 9 5 12 14 16 16 16
23 24 24 21 19 15 19 27 29 28 29 27 32 25 22 29 29 23 24 29 33 24 23 24 26 24 23 24 17 24 25 24 26 17 10 12 12 14 14 16 15 13 14
24 23 23 23 22 21 19 25 32 30 28 26 22 24 18 22 31 22 22 31 30 28 27 24 27 27 25 21 21 23 26 26 29 21 13 14 14 14 13 13 13 15 17
26 24 23 23 22 23 24 27 32 32 29 25 24 24 18 21 29 26 27 30 27 26 31 16 27 29 26 25 26 27 27 27 26 26 16 14 15 13 15 15 17 17 18
27 24 25 22 21 23 25 29 32 33 29 24 23 23 21 21 23 26 30 31 26 33 26 23 28 29 27 25 27 27 29 22 23 15 15 19 14 19 18 16 17 19 19
27 24 26 24 21 23 26 30 30 29 29 22 22 24 20 25 25 27 31 31 25 31 26 25 28 27 25 25 29 30 24 20 19 19 19 17 16 17 16 16 18 19 20
26 25 23 25 22 24 26 29 27 24 22 20 21 22 28 26 28 28 26 30 32 32 27 31 29 28 25 24 29 25 23 24 20 21 18 17 18 18 17 17 19 22 23
24 26 22 23 23 24 26 26 24 22 19 20 22 25 25 31 35 37 35 32 36 34 31 31 31 30 26 23 22 26 27 23 22 19 19 17 19 19 18 19 21 23 22
26 26 23 21 24 25 24 23 22 20 20 21 22 26 32 28 34 37 36 32 40 43 36 35 32 27 24 24 28 27 25 24 21 19 18 17 18 20 22 23 22 23 27
28 28 25 20 23 25 22 20 20 20 20 21 22 23 33 25 35 38 39 38 40 40 40 38 31 27 27 28 29 29 27 25 23 20 18 20 22 22 23 25 25 27 30
30 26 25 20 22 24 20 19 20 21 20 22 21 23 28 20 35 40 42 39 41 43 42 35 33 30 34 35 32 28 26 25 24 23 22 25 26 26 26 29 31 30 32
32 23 27 22 23 23 18 19 21 21 20 21 21 22 23 19 32 40 44 46 44 42 39 36 34 31 33 32 31 29 29 28 27 26 25 28 30 30 33 35 36 36 36
38 26 33 24 24 21 18 18 21 21 21 20 20 17 24 17 20 33 43 48 49 38 39 39 37 33 33 34 31 29 30 29 30 29 31 31 33 33 36 38 40 40 40
35 30 32 25 23 19 18 17 20 22 20 19 19 19 22 19 18 30 36 45 51 40 32 36 35 33 33 31 31 30 29 30 32 34 35 35 34 34 38 37 37 37 37
31 27 31 25 22 18 17 16 19 21 19 19 17 21 22 24 22 28 31 46 51 30 34 34 32 31 34 31 29 28 30 33 34 34 34 33 33 36 38 35 34 34 35
27 29 29 25 23 19 15 16 18 19 18 19 16 18 22 21 25 34 39 43 35 32 35 31 33 35 31 31 32 31 31 30 29 28 28 30 36 39 38 36 33 35 35
34 32 28 27 23 19 14 16 17 17 18 18 18 17 18 18 25 38 39 48 40 34 31 31 35 34 33 32 29 28 28 28 30 29 30 36 37 37 36 34 32 32 33

GFSSE_500_spd_111.txt.gz
Wind_Speed
15 16 19 21 23 24 21 19 20 21 21 20 22 20 19 18 21 24 27 25 23 23 21 19 18 18 19 18 16 14 14 13 13 13 13 13 13 16 16 15 14 13 12
16 18 21 22 24 23 21 19 21 23 25 25 25 24 22 20 20 22 27 25 25 24 23 22 20 20 20 17 15 15 15 14 14 13 13 13 12 11 13 13 14 13 13
18 18 20 22 23 22 22 21 22 23 25 26 27 26 26 23 18 22 22 26 25 25 24 23 21 21 20 18 17 17 15 14 14 13 12 13 15 15 12 12 13 14 12
19 17 19 22 22 21 21 23 25 27 26 25 25 25 24 23 19 19 14 17 23 22 24 23 22 22 20 19 19 16 15 13 13 13 13 12 11 12 13 13 13 11 9
19 17 19 20 20 20 20 21 25 23 23 25 26 25 25 30 21 20 23 18 16 17 22 20 21 20 21 21 20 17 16 14 13 14 14 13 12 10 10 11 12 11 10
19 16 19 20 20 19 18 19 22 22 20 23 21 21 22 24 18 20 19 18 19 18 18 20 20 23 24 22 20 18 17 16 16 17 17 17 15 17 16 20 17 10 8
21 15 17 18 20 19 19 18 20 20 21 21 22 19 20 27 39 21 16 19 18 18 16 21 24 25 25 23 21 19 16 17 17 15 18 18 18 15 18 18 11 12 12
24 21 17 17 19 20 20 20 21 20 22 20 22 28 22 26 31 24 20 23 19 19 18 21 25 26 25 25 22 19 18 20 18 18 19 18 18 20 18 15 15 15 14
24 22 20 19 20 20 21 21 23 21 21 21 22 23 20 22 23 23 19 25 25 21 29 24 25 28 24 26 23 20 22 22 19 19 20 19 25 21 15 15 18 12 16
22 21 19 20 22 22 20 21 23 21 21 22 20 20 16 14 21 25 19 25 25 24 17 21 24 27 27 26 21 22 21 18 19 21 20 20 29 23 11 12 12 14 16
19 19 18 20 21 24 23 20 23 24 19 21 19 16 15 14 19 20 20 22 24 20 19 14 22 26 27 26 25 24 23 24 22 24 24 15 10 8 10 11 15 15 15
20 20 19 20 21 23 24 24 22 24 21 20 20 16 20 20 18 19 20 20 22 23 18 20 25 24 23 26 26 22 27 27 26 25 16 12 13 11 12 15 15 13 13
19 19 20 21 21 24 26 27 26 25 23 20 20 19 19 19 18 22 22 17 20 24 25 21 26 25 23 25 25 24 25 27 29 26 24 12 13 13 14 14 14 15 15
25 19 18 20 21 23 25 28 28 27 26 22 20 21 19 18 19 21 27 24 23 27 26 31 26 30 27 27 25 25 26 26 26 24 22 24 17 16 15 15 15 17 16
27 22 18 19 21 23 24 27 28 29 28 24 21 19 20 18 18 22 24 27 25 28 33 30 27 27 27 27 26 26 25 25 26 32 31 22 20 18 17 19 19 18 15
28 23 20 19 22 25 23 25 27 29 27 23 18 17 20 18 20 19 24 28 29 30 35 33 26 31 29 28 28 27 29 30 25 21 22 19 21 17 19 19 18 18 18
29 25 21 21 24 26 24 24 27 28 25 20 19 17 19 21 21 23 27 26 26 31 34 31 33 32 30 29 27 31 33 32 26 25 22 21 19 21 19 18 18 20 20
31 26 22 22 25 27 26 24 26 27 24 20 18 19 18 20 24 31 28 29 23 33 38 37 37 34 32 30 28 32 31 28 30 28 23 22 21 19 21 21 23 23 23
30 26 24 24 25 28 27 25 25 26 23 19 20 21 18 18 24 30 28 31 33 36 40 38 36 32 32 32 29 30 30 33 31 28 26 21 20 21 22 22 23 23 25
28 25 27 24 25 28 27 26 26 25 22 20 22 23 20 20 25 21 25 29 33 36 41 39 39 34 36 32 30 30 35 33 31 27 26 21 23 23 23 24 25 27 29
26 27 27 26 27 30 30 27 27 24 20 20 23 24 20 21 23 24 29 32 33 40 37 37 40 40 36 33 31 38 34 32 30 27 25 26 26 26 27 28 28 30 32
27 26 29 30 31 33 35 29 28 24 19 20 23 22 21 19 24 19 37 42 43 37 40 42 44 44 38 36 35 38 35 34 32 30 30 30 30 30 30 31 32 36 39
29 26 28 30 31 35 34 30 28 24 20 19 21 21 21 21 24 18 16 37 43 42 41 44 45 45 39 36 39 40 38 36 34 32 34 35 34 33 32 33 35 38 39
33 29 28 29 32 35 34 30 28 23 19 18 18 20 21 21 23 20 19 28 45 46 45 48 45 45 40 36 35 37 36 37 37 36 38 36 36 37 34 31 35 37 38
34 30 32 28 31 31 35 30 29 23 18 18 17 18 20 18 18 19 20 29 39 46 47 47 48 45 41 41 38 38 40 41 40 39 36 35 33 30 28 34 37 38 37
33 32 31 28 30 32 31 30 29 25 19 18 16 17 20 17 16 15 20 28 36 47 50 50 45 45 41 38 39 41 43 41 37 38 38 33 28 27 32 35 35 35 34

GFSSE_500_spd_114.txt.gz
Wind_Speed
16 14 14 13 14 17 19 19 18 17 17 16 17 20 19 18 18 19 22 26 26 24 22 22 21 20 20 20 18 16 14 14 14 14 13 13 13 13 15 14 13 13 13
14 15 16 15 15 18 19 19 19 19 19 20 20 22 22 22 22 21 22 22 26 25 23 23 23 21 20 20 18 17 15 14 13 13 14 13 12 12 12 14 13 12 13
19 17 18 16 16 18 20 20 18 20 22 23 22 22 23 23 24 24 22 24 24 27 24 22 22 21 20 20 19 19 18 16 14 13 13 13 13 14 13 12 13 14 13
21 18 17 16 16 18 20 20 21 20 20 20 19 20 22 21 21 22 25 22 21 20 24 23 23 22 22 21 22 21 19 17 14 13 12 12 12 14 14 14 14 14 14
23 21 18 16 17 18 20 20 20 20 19 18 20 19 17 16 22 26 17 15 10 10 15 22 22 22 23 23 23 23 20 17 16 14 13 14 14 15 14 14 14 14 15
21 21 19 18 16 17 20 22 19 19 17 17 18 17 17 19 30 36 30 21 15 14 12 19 20 21 24 26 26 24 19 19 18 18 16 16 15 13 12 12 15 14 16
18 18 17 19 17 16 19 21 21 20 18 17 16 18 16 12 24 16 10 14 16 14 14 16 20 23 26 28 25 23 20 20 19 19 18 17 16 18 15 19 19 20 16
17 18 17 19 18 17 18 20 22 23 20 17 16 18 14 8 21 20 22 15 19 18 18 19 20 25 28 28 27 24 21 21 20 20 19 18 19 20 19 20 19 20 16
16 17 18 17 18 17 17 20 21 23 23 21 16 17 14 11 11 18 14 13 17 18 19 19 15 21 28 28 27 25 22 20 21 21 21 19 21 20 21 19 17 20 18
17 17 17 17 16 17 17 19 20 21 22 22 18 17 14 12 10 11 14 17 18 23 24 17 26 23 31 30 28 26 26 22 21 21 20 22 21 22 19 19 17 21 20
19 17 17 17 16 16 16 18 21 21 22 20 19 15 14 13 11 15 23 22 18 21 20 23 22 23 32 30 29 27 24 25 22 22 21 23 22 22 23 17 15 14 15
21 17 17 17 17 17 17 19 20 22 23 21 19 16 17 17 16 17 19 19 22 18 19 19 16 23 29 29 28 28 28 24 24 23 24 25 24 16 21 15 13 13 14
22 19 18 19 20 18 17 19 21 21 23 22 20 18 19 18 17 15 16 17 21 22 20 18 18 21 27 27 30 31 28 28 26 27 26 28 24 16 14 14 15 16 15
23 23 21 19 20 21 18 20 23 23 23 22 22 19 21 21 16 14 16 19 21 19 21 23 20 25 27 29 32 32 28 28 30 29 25 25 17 16 17 16 15 14 13
26 28 23 19 20 23 21 21 24 25 24 24 22 20 20 19 17 14 15 18 20 22 20 23 25 28 31 29 29 28 29 28 28 27 24 23 23 20 20 19 16 15 14
30 28 30 20 20 22 23 25 25 27 25 24 22 21 20 17 16 18 13 15 26 28 29 28 27 32 30 31 32 29 27 26 25 25 26 24 25 25 21 19 19 17 17
30 31 33 22 20 24 24 25 27 29 26 24 22 21 20 17 17 19 15 11 21 31 34 32 35 36 32 35 35 30 28 28 28 29 28 27 24 24 23 22 18 19 18
33 33 37 22 21 25 25 25 29 30 27 24 22 21 19 20 20 17 23 22 21 27 35 35 34 36 36 36 35 31 30 30 31 35 26 25 26 23 24 22 18 20 19
33 35 34 23 22 25 25 26 28 30 28 25 23 22 22 20 22 20 21 20 20 26 31 34 36 39 38 36 37 33 31 33 34 31 30 30 27 24 24 21 23 23 22
33 36 34 27 24 24 25 28 27 30 29 26 25 24 26 20 23 23 27 32 21 30 31 29 39 41 37 37 37 34 32 32 33 31 35 31 28 24 25 23 24 22 23
35 36 34 32 28 25 25 29 29 32 31 28 25 25 26 23 22 23 26 27 29 29 34 35 38 44 40 40 39 37 34 32 31 35 35 30 30 29 27 25 25 25 26
38 34 35 36 31 26 28 30 30 32 30 29 27 26 26 23 21 25 21 26 32 31 36 35 39 39 41 37 37 35 33 30 32 38 33 32 31 32 30 28 28 28 30
39 35 36 38 36 31 31 29 31 32 31 29 27 26 27 23 21 25 25 28 36 42 35 37 42 43 40 41 39 34 33 30 38 38 36 35 35 36 33 31 31 32 34
40 38 37 39 39 37 34 31 32 32 30 29 27 26 27 24 21 22 23 24 19 38 44 37 36 42 43 41 42 37 34 37 41 41 40 41 39 36 36 36 36 37 38
38 37 36 40 42 40 36 32 33 33 31 30 28 26 28 24 21 20 20 27 25 28 48 48 41 41 44 46 46 40 39 41 44 44 42 41 39 40 41 39 38 36 34
36 37 37 40 42 43 37 35 35 33 31 31 30 28 27 25 21 20 21 28 40 32 46 46 44 43 42 46 47 44 42 46 45 44 43 45 44 43 40 38 39 35 34

GFSSE_500_spd_117.txt.gz
Wind_Speed
19 14 13 13 14 16 15 15 17 17 17 17 16 17 19 20 21 20 20 19 21 25 23 26 25 24 25 25 24 22 20 17 16 16 15 14 13 14 15 13 12 12 11
15 14 15 16 14 15 15 15 18 19 18 17 19 21 23 24 24 25 25 23 25 23 22 24 25 25 25 25 23 20 19 18 17 16 15 14 14 14 14 13 12 12 12
15 14 13 15 15 15 15 15 17 19 18 18 20 21 18 22 26 27 29 26 24 23 22 23 24 26 24 22 22 20 20 18 17 17 17 17 16 14 13 13 13 14 14
15 16 15 15 15 16 16 17 17 19 18 17 19 20 21 22 25 26 30 30 26 20 23 23 24 25 24 23 22 22 22 20 18 18 17 16 16 16 16 14 15 16 16
15 15 16 16 16 17 17 18 17 18 19 18 20 19 19 21 26 21 20 18 27 12 15 19 22 23 26 24 25 24 23 23 20 17 16 15 15 16 15 15 15 15 14
15 16 17 17 18 18 20 20 19 19 18 18 21 18 18 19 12 24 15 20 19 15 10 11 15 20 23 26 25 25 25 23 21 19 19 17 15 15 15 14 15 14 14
18 15 16 16 16 18 19 21 21 20 19 18 19 19 18 20 14 20 32 26 16 19 14 13 16 17 23 27 27 27 26 23 21 21 19 18 16 15 15 13 13 14 14
21 17 15 14 14 15 17 20 20 20 20 20 22 18 20 14 15 11 8 16 17 11 10 15 18 21 25 27 29 29 28 26 26 21 20 20 16 17 18 15 16 18 20
23 18 15 15 14 16 16 19 19 19 19 21 23 21 18 14 16 20 23 23 21 22 20 20 17 15 21 27 29 30 28 27 26 23 22 20 18 18 21 20 20 19 20
25 22 18 16 16 15 16 18 18 18 19 20 22 22 18 15 17 13 14 20 18 20 22 21 19 15 17 24 28 30 28 28 26 24 22 19 18 21 20 23 19 18 19
28 23 22 19 16 15 15 18 18 19 19 20 21 20 20 17 16 17 17 19 20 21 23 21 18 21 24 25 28 31 31 29 26 23 22 20 22 21 22 20 18 22 23
30 25 24 24 18 16 17 18 18 19 19 20 21 20 20 19 17 19 19 18 18 22 22 20 21 24 20 29 29 32 31 30 29 24 22 21 21 21 21 23 21 18 16
32 25 28 28 23 17 17 18 19 18 20 21 22 19 20 19 17 19 18 16 17 25 23 20 20 17 19 25 28 33 31 30 28 25 25 22 22 22 24 24 23 19 16
33 28 30 32 27 21 18 19 21 18 19 23 25 20 18 18 20 20 18 14 14 20 21 22 21 18 22 26 29 31 32 32 30 25 26 24 21 17 25 13 15 16 16
36 31 30 34 28 25 20 21 22 20 20 24 27 24 18 19 18 18 17 14 15 20 22 21 24 20 24 25 27 29 32 32 30 29 25 24 22 19 15 16 16 17 16
37 33 31 32 34 25 24 23 23 21 21 24 27 27 20 21 18 16 16 16 15 21 25 27 22 25 25 25 26 31 31 31 30 30 27 24 24 21 21 22 21 19 18
38 35 30 31 37 27 26 25 25 21 22 24 27 28 21 20 19 18 16 18 15 19 26 28 21 29 26 29 28 30 30 32 31 28 26 25 25 23 24 25 23 20 19
40 36 31 32 36 30 29 26 26 24 22 22 26 28 24 21 22 21 19 20 20 15 22 33 29 29 31 34 27 33 32 32 27 27 25 25 26 25 27 22 22 20 20
39 33 32 33 34 33 32 27 28 24 22 22 23 28 26 23 23 24 21 21 26 27 24 31 35 35 34 33 30 34 36 35 30 29 27 28 28 26 22 24 21 23 23
40 35 34 33 35 34 34 29 29 26 24 24 23 26 27 25 25 24 26 24 26 28 28 30 36 38 36 39 35 38 39 37 34 31 30 29 28 27 26 25 24 25 25
42 36 35 34 34 34 34 31 30 32 28 25 24 26 28 26 27 26 28 27 25 31 29 31 31 31 35 37 36 39 43 39 34 32 31 31 31 31 30 28 28 26 26
42 38 36 35 35 33 33 32 32 35 31 28 25 25 28 28 29 27 28 29 26 27 33 35 35 37 32 35 39 42 41 37 31 30 30 31 32 34 33 31 30 29 28
43 40 38 35 34 32 33 33 35 36 33 30 25 25 28 29 32 28 28 30 27 28 29 34 38 38 31 36 39 40 39 36 38 34 32 33 34 36 36 34 33 32 31
42 41 39 37 36 33 35 34 38 36 36 32 27 27 29 29 31 29 28 29 28 27 30 31 39 40 36 36 42 39 39 39 40 36 36 33 37 39 38 38 36 34 34
43 41 39 39 36 33 36 36 38 37 40 35 32 29 29 30 31 31 28 29 28 27 33 30 40 42 39 39 39 41 41 39 36 36 36 37 42 42 42 40 37 37 38
45 41 42 39 37 34 36 37 38 40 43 39 34 31 30 31 32 31 30 31 30 31 33 30 39 46 44 42 44 45 42 40 42 40 37 41 45 46 44 42 42 42 43

GFSSE_500_spd_120.txt.gz
Wind_Speed
16 13 14 11 12 14 13 14 14 16 17 18 17 19 21 20 22 23 24 22 21 19 18 21 24 25 23 23 24 24 24 22 20 21 20 19 18 17 17 15 14 11 12
17 14 14 13 13 13 12 14 15 15 17 17 17 19 22 24 22 24 25 27 26 23 18 19 23 24 25 26 26 25 25 23 22 21 20 19 18 19 18 16 12 13 13
16 16 16 13 13 12 11 14 14 15 17 18 18 19 21 21 22 24 27 29 30 26 21 20 23 26 27 28 28 29 27 25 22 20 18 17 17 16 16 15 14 14 14
16 17 16 15 14 13 13 13 16 17 18 18 18 20 23 22 23 27 31 33 31 27 24 22 23 25 27 28 27 26 25 24 22 20 19 18 17 17 16 14 13 13 14
15 14 16 16 16 15 15 16 16 18 20 20 21 21 22 20 22 26 28 32 22 21 27 21 21 24 26 26 26 26 25 24 22 21 20 19 18 17 17 16 14 13 12
14 13 13 15 17 18 19 19 19 20 21 21 22 23 23 20 17 18 15 20 10 27 21 21 21 25 26 27 27 26 25 25 24 22 20 20 18 17 16 14 14 12 12
13 14 13 13 17 16 16 17 17 18 20 21 21 22 25 22 19 17 18 19 24 25 15 14 21 23 25 28 28 26 25 25 25 23 22 19 17 17 16 14 12 10 11
15 16 15 16 16 14 14 15 16 17 18 20 20 20 24 20 20 18 18 11 25 20 13 13 9 19 27 30 30 27 26 25 25 25 24 19 18 16 15 14 11 12 12
17 18 16 17 19 16 13 15 16 17 18 19 21 20 20 23 20 19 20 21 19 20 16 14 12 16 21 26 28 27 27 27 27 27 24 21 18 16 15 15 14 14 16
20 20 19 17 19 19 14 16 17 17 19 19 19 21 20 22 22 19 21 17 15 20 19 20 14 14 15 21 24 27 28 28 28 26 26 23 20 17 16 18 18 17 17
24 22 22 19 21 20 17 16 16 17 19 20 19 18 20 21 22 20 22 18 17 17 15 16 17 19 17 14 16 22 28 26 28 27 26 22 21 18 17 18 20 18 16
29 27 25 22 23 22 20 18 19 17 18 19 20 18 19 21 22 20 19 20 21 18 19 17 20 21 19 20 21 23 28 28 29 27 26 23 22 19 17 18 18 18 17
34 32 30 26 26 24 21 20 21 19 18 20 21 18 18 19 18 18 20 20 20 19 20 23 22 20 23 22 21 28 26 29 28 28 26 23 21 17 18 16 19 19 19
34 33 35 30 27 27 23 22 22 20 20 20 24 19 18 20 18 17 19 20 20 20 19 24 23 22 22 18 23 24 24 26 30 28 28 21 19 18 15 15 19 16 20
38 32 36 35 30 30 26 24 23 22 21 20 23 21 18 20 20 17 18 17 17 18 18 22 22 21 18 19 20 20 27 27 24 28 28 23 20 19 17 17 15 10 14
33 40 32 35 33 31 33 25 25 23 22 22 23 21 19 20 20 18 16 17 16 16 18 22 21 21 21 21 20 21 25 25 25 29 28 24 22 22 18 15 14 15 15
36 35 38 34 34 32 33 28 28 24 23 23 24 22 18 19 20 17 16 15 16 18 19 23 25 21 24 25 25 23 24 24 27 26 27 27 23 23 22 20 20 21 18
38 38 36 37 32 33 31 29 30 26 25 24 24 24 20 19 20 18 18 16 17 19 17 22 26 31 31 26 27 26 25 25 28 25 27 23 25 25 24 20 22 22 20
37 37 37 34 32 33 33 27 29 28 28 27 24 24 23 21 21 21 19 20 17 19 23 22 22 29 25 30 27 30 26 25 26 24 26 25 26 26 23 22 24 21 21
37 36 36 34 30 32 34 26 28 29 29 29 26 25 27 23 21 23 21 21 21 22 23 28 28 24 30 30 30 31 27 25 29 27 27 26 28 27 25 21 23 22 22
38 35 33 35 32 31 30 28 28 29 31 28 28 27 28 25 22 22 24 23 24 24 26 26 30 27 32 36 38 36 36 31 32 33 30 30 29 29 28 25 28 24 26
39 39 36 34 36 31 29 28 29 30 32 29 27 29 27 25 23 23 25 24 26 26 28 25 27 29 29 38 40 40 38 37 33 34 31 31 31 31 31 29 29 29 28
42 39 33 35 36 33 30 28 29 31 30 29 28 28 26 28 23 24 26 26 27 26 28 30 27 28 33 36 36 34 32 34 34 34 33 31 30 32 32 32 32 31 32
46 39 38 38 36 35 32 29 30 31 30 30 29 28 27 27 26 26 26 27 27 28 28 30 28 27 34 39 36 39 35 38 37 38 37 35 34 33 35 34 33 34 34
44 42 39 38 38 36 33 33 32 32 31 30 28 32 27 28 27 29 27 28 28 29 30 30 32 30 29 41 41 41 35 34 37 38 36 37 38 37 35 36 37 37 37
45 44 40 37 40 36 35 36 34 32 32 31 30 32 30 30 30 29 30 28 28 29 32 34 34 32 31 37 40 37 34 38 41 40 39 38 37 35 36 38 38 39 39

GFSSE_500_spd_123.txt.gz
Wind_Speed
18 14 11 10 10 10 13 14 14 15 16 17 17 19 21 22 22 22 23 24 25 23 19 20 24 24 24 24 23 24 25 20 20 21 25 25 18 11 11 12 12 15 13
18 15 11 11 13 13 13 14 13 15 17 19 19 20 21 20 19 20 23 25 29 28 24 22 22 25 25 26 25 26 26 24 23 23 23 22 21 18 16 16 16 14 16
16 14 12 11 13 14 14 14 15 16 18 19 20 21 22 21 19 19 22 27 36 31 27 24 22 24 26 27 27 29 28 27 27 26 25 23 21 19 18 18 17 16 16
18 15 13 13 14 13 14 15 16 17 19 20 21 23 24 22 22 22 25 32 30 31 33 27 23 25 27 26 28 29 28 26 27 24 23 22 19 18 17 16 15 15 15
17 15 14 13 14 14 14 15 18 20 22 22 22 23 25 23 22 23 22 14 19 25 26 33 26 25 23 29 28 27 26 25 25 24 23 20 19 20 18 16 13 12 11
20 15 13 11 12 13 14 15 15 16 18 19 20 21 25 23 20 22 20 18 18 21 25 22 28 25 23 30 28 27 26 26 25 24 23 21 19 18 17 17 14 13 12
21 15 12 10 11 11 12 12 12 13 15 16 18 20 23 24 18 21 20 19 21 20 15 21 23 24 25 26 28 26 27 27 25 24 21 20 19 19 16 16 14 12 11
22 16 13 11 12 11 13 12 11 11 13 17 18 20 21 23 20 19 20 16 13 16 24 11 8 12 26 26 28 27 28 25 24 24 23 21 20 18 16 16 15 12 11
24 19 16 13 12 13 13 13 12 12 13 16 19 21 21 22 20 18 17 16 17 15 17 18 10 8 16 23 27 27 28 25 25 25 25 22 20 17 17 16 16 13 13
24 22 19 18 14 14 14 15 13 14 15 16 18 20 21 23 20 19 17 17 15 14 16 19 17 13 13 17 23 25 28 27 27 26 24 21 21 20 18 16 17 15 14
26 25 22 22 19 17 15 16 17 17 16 17 18 19 21 21 23 19 17 14 13 13 15 21 14 17 14 14 17 21 25 28 27 26 23 23 23 21 18 16 18 17 17
27 28 27 25 23 19 19 17 19 19 18 18 19 19 20 22 21 21 17 14 13 13 14 17 16 19 18 16 15 17 20 23 29 26 25 23 22 22 20 17 17 18 18
29 29 30 30 27 23 21 20 20 22 21 20 20 19 19 21 20 21 18 13 14 15 14 18 19 19 20 18 17 21 20 21 26 26 24 24 23 20 20 18 17 18 17
30 29 29 31 30 27 23 23 22 23 24 23 22 20 20 20 19 20 20 16 13 15 15 17 17 22 20 16 21 22 19 23 24 26 27 24 23 21 19 17 15 18 18
36 29 28 32 29 30 26 25 24 24 25 24 23 22 20 19 19 18 18 16 14 14 15 15 16 23 22 19 23 21 18 22 22 23 27 24 22 21 19 15 16 16 8
40 34 31 28 31 28 27 29 27 24 24 25 24 23 21 19 20 16 16 16 14 14 16 14 16 21 21 19 20 19 21 21 21 23 26 23 25 21 19 18 15 15 8
41 42 35 31 29 30 26 29 30 24 26 24 23 23 21 20 21 16 14 15 14 13 16 16 16 24 22 22 20 25 20 17 19 25 24 23 25 21 21 23 19 17 14
42 42 42 34 29 30 27 28 31 25 27 24 23 23 23 20 22 19 14 13 15 15 15 17 16 20 21 20 24 25 25 19 20 25 25 22 25 25 22 23 21 19 16
43 42 43 40 30 30 28 27 30 27 27 22 24 22 23 23 23 22 18 13 14 16 16 17 19 18 21 23 26 31 24 23 21 23 25 22 24 23 25 25 24 20 20
43 43 43 42 33 30 29 27 27 28 27 23 23 22 22 23 25 24 21 16 15 15 19 19 21 24 23 21 28 33 30 27 24 23 27 23 24 26 24 24 25 22 22
44 44 42 39 32 29 29 27 27 30 29 26 22 23 23 23 23 26 21 19 15 16 18 21 23 23 24 25 24 31 35 27 27 24 26 25 24 24 25 26 26 24 21
42 40 36 34 30 27 30 28 28 30 29 29 25 21 23 24 22 25 23 21 18 17 17 20 24 26 26 26 27 27 33 33 29 30 28 30 28 26 28 28 28 26 24
43 37 37 34 30 31 33 32 28 30 29 30 23 24 24 23 21 23 24 22 21 20 19 20 23 25 27 28 23 25 31 36 34 35 36 33 31 29 29 29 30 28 27
44 39 40 38 32 34 33 31 29 31 31 30 27 29 25 24 22 21 23 24 23 24 22 21 23 27 29 30 28 30 31 31 30 32 36 35 34 31 30 30 29 30 31
42 42 39 36 34 37 35 32 32 34 34 32 31 31 26 25 24 21 22 24 23 26 27 24 24 26 29 29 26 25 29 32 37 32 36 36 38 34 32 34 34 33 33
49 44 41 36 37 36 36 32 33 36 35 33 33 32 28 27 27 22 23 23 24 27 29 27 26 26 30 32 28 29 31 38 36 36 31 37 35 36 37 37 38 37 36

GFSSE_500_spd_129.txt.gz
Wind_Speed
17 21 22 22 21 21 18 15 15 14 11 13 14 14 16 18 20 21 19 21 20 20 20 22 25 25 25 25 24 23 21 22 22 22 22 30 20 18 21 24 13 4 8
30 28 28 26 23 22 20 16 17 15 12 14 15 16 19 21 22 23 22 22 22 21 19 21 24 27 27 26 26 23 24 24 24 17 15 11 17 11 16 14 6 10 12
37 31 29 26 23 23 22 18 18 16 14 15 16 17 20 22 23 22 22 21 22 20 21 20 22 20 29 26 26 25 25 26 25 24 24 17 16 15 14 11 12 14 15
37 34 30 28 23 23 22 20 19 17 17 18 18 18 19 20 21 20 19 21 21 19 19 24 19 20 27 25 25 29 28 26 26 26 25 23 21 19 16 16 16 15 13
37 35 32 29 25 23 20 21 20 19 20 20 20 18 16 17 19 19 19 20 19 17 17 15 11 14 21 29 24 28 27 26 24 25 24 24 22 22 21 19 15 11 9
36 37 35 32 26 24 20 19 19 19 19 18 16 17 15 16 17 18 18 20 18 17 7 15 7 9 15 32 25 23 27 27 26 25 23 25 24 22 20 17 14 12 11
37 36 37 33 28 26 21 18 15 15 15 15 14 15 16 16 17 17 17 19 18 16 10 15 13 5 10 19 21 23 29 29 26 25 24 23 23 20 17 14 14 14 13
35 33 34 35 29 27 23 20 16 15 15 15 15 15 15 16 18 18 16 18 18 13 15 12 12 4 6 17 21 17 26 27 25 24 24 23 20 18 16 14 13 12 12
35 30 32 36 31 26 23 20 18 17 15 14 14 15 15 16 19 18 17 17 17 14 12 10 9 5 3 13 19 21 21 23 23 23 23 22 19 17 15 13 13 13 13
36 30 32 39 34 26 23 19 18 17 16 14 14 15 16 18 19 19 19 18 18 15 11 10 9 6 8 12 17 25 20 20 19 21 23 19 18 18 15 15 13 14 14
37 37 30 39 35 26 23 21 17 17 16 15 14 15 17 18 19 20 20 18 18 15 11 9 7 9 9 10 17 18 19 18 19 21 20 19 20 17 19 16 14 14 14
40 36 39 36 35 30 25 23 19 18 17 15 14 15 16 18 20 20 20 18 17 14 11 10 9 8 9 12 14 15 15 17 18 22 22 22 21 19 18 17 15 15 16
42 32 32 32 33 30 27 24 21 19 19 18 15 15 15 16 19 20 19 17 17 15 11 10 12 11 11 9 15 12 12 15 19 21 22 23 23 21 19 17 16 16 18
38 39 36 32 37 34 30 25 22 20 20 19 18 16 16 16 18 20 18 16 16 14 12 11 11 13 13 11 14 17 15 17 19 17 19 24 25 21 20 19 17 18 20
52 46 41 33 33 32 30 25 23 22 21 20 18 17 16 17 18 19 17 15 14 13 12 10 9 13 14 13 15 19 17 20 18 21 22 23 24 23 21 20 18 20 21
57 53 43 32 34 33 32 27 25 24 23 21 20 18 17 17 17 19 16 14 14 13 12 11 10 11 13 13 18 19 18 19 24 26 29 19 24 24 22 21 21 22 21
62 54 44 33 31 32 31 30 28 26 26 22 22 19 18 17 17 18 16 15 14 13 13 13 12 11 11 12 17 21 22 24 27 25 22 20 21 24 23 25 23 22 23
68 60 51 38 33 32 32 32 32 30 28 26 25 21 20 19 18 18 18 15 14 13 14 14 15 13 13 14 13 21 25 25 25 26 24 22 23 24 25 25 22 26 23
69 65 57 44 38 37 35 35 35 34 31 29 28 24 22 23 19 18 19 17 15 14 13 16 16 17 16 17 15 15 26 26 24 29 23 27 25 26 27 25 25 22 25
64 63 61 49 41 41 41 39 38 35 33 31 30 27 27 27 22 20 19 19 15 14 13 15 18 18 19 18 18 15 14 28 26 31 26 31 28 30 26 25 26 26 26
65 61 66 59 47 47 45 42 38 37 36 36 35 32 31 30 26 21 21 21 19 16 14 15 18 18 19 21 20 20 20 18 24 24 31 35 29 26 26 26 26 28 27
74 69 67 66 56 49 45 40 40 39 37 40 39 34 33 31 30 23 24 23 22 18 17 16 19 19 20 21 21 24 24 21 20 21 23 35 30 26 26 28 28 28 29
82 76 72 70 66 47 46 43 41 43 40 46 36 34 33 34 34 28 28 24 24 21 20 19 20 21 21 21 23 23 24 24 26 22 22 27 35 30 30 30 30 30 30
78 79 79 74 69 52 47 43 45 44 40 41 40 40 36 37 37 32 32 26 26 24 22 21 22 22 22 23 23 26 25 26 27 23 24 26 29 35 35 32 32 34 33
63 69 80 75 66 50 44 43 46 44 44 43 44 42 40 39 38 35 32 29 28 29 25 24 24 23 22 24 25 27 26 24 27 26 24 26 27 30 31 34 35 34 36
58 54 60 62 60 56 51 50 48 44 44 45 44 43 43 40 37 36 34 29 30 31 29 27 26 24 25 24 25 26 26 26 25 28 27 26 27 28 27 35 33 33 38